Location: Courcelles
(49.2596°N, 1.7419°E)
Time: 20:04:29
(UTC+00:00)

SPOT 1/Viking Rocket - Pass Details

Date: 17 November 2025
Orbit: 773 x 789 km, 98.2° (Epoch: 10 December)

Event Time Altitude Azimuth Distance (km) Brightness Sun altitude
Rises 17:11:58 0° 140° (SE) 3,260 6.5 -10.3°
Reaches altitude 10° 17:14:24 10° 133° (SE) 2,338 5.7 -10.7°
Maximum altitude 17:19:09 39° 66° (ENE) 1,176 4.0 -11.4°
Drops below altitude 10° 17:23:57 10° 359° (N) 2,361 5.9 -12.2°
Sets 17:26:24 0° 352° (N) 3,296 6.7 -12.6°
